Tracking 19644 objects as of 26-Apr-2019
HD Live streaming from Space Station
objects crossing your sky now

COSMOS 1431

Track COSMOS 1431 now!
10-day predictions
COSMOS 1431 is classified as:


NORAD ID: 13763
Int'l Code: 1983-002C
Perigee: 1,471.8 km
Apogee: 1,490.7 km
Inclination: 74.0 °
Period: 115.4 minutes
Semi major axis: 7852 km
RCS: 0.6684 m2 (medium)
Launch date: January 19, 1983
Source: Commonwealth of Independent States (former USSR) (CIS)
Launch site: PLESETSK MISSILE AND SPACE COMPLEX (PKMTR)
aabbcc
Your satellite tracking list
Your tracking list is empty




NASA's NSSDC Master Catalog

Two Line Element Set (TLE):
1 13763U 83002C   19115.83564705 -.00000002  00000-0  90642-4 0  9996
2 13763  74.0221 272.3960 0012026 221.3538 138.6633 12.47707602651998
Source of the keplerian elements: AFSPC